Weather in Kvitneve

Ukraine / Zhytomyr Region     49°59′28″N   29°31′02″E
temp.,
°C
wind,
m/s
gust,
m/s
humid.,
%
clouds,
%
prec.,
mm/h
press.,
hPa
HPBL,
m
24 october, sun
sun2400:00+5w5106599 0.0 1022396
03:00+6wnw6969100 0.1 1023719
06:00+4w51183100 0.1 1024390
09:00+6nw6107363 0.1 1025996
12:00+8nw795284 0.0 10271610
15:00+7nnw91053100 0.1 10281668
18:00+6nw6853100 0.0 10301512
21:00+5nnw575194 0.0 10311155
25 october, mon
mon2500:00+2nw36777 0.0 1032141
03:00+1nnw347781 0.0 103388
06:000nnw22781 0.0 103432
09:00+1nnw11700 0.0 103483
12:00+6sse11495 0.0 1034633
15:00+8s22385 0.0 1032914
18:00+6sse33465 0.0 103223
21:00+3sse365311 0.0 103294
26 october, tue
tue2600:00+2s48575 0.0 1032139
03:00+1s38605 0.0 1031136
06:00+1s49650 0.0 1030170
09:00+3s512600 0.0 1030303
12:00+9s69395 0.0 1028701
15:00+12s68345 0.0 1026997
18:00+8s49470 0.0 1025163
21:00+5s410580 0.0 1025201
27 october, wed
wed2700:00+4s512710 0.0 1025266
03:00+4s512810 0.0 1024270
06:00+3s411900 0.0 1024258
09:00+4ssw5118836 0.0 1024352
12:00+9sw5666100 0.0 1023612
15:00+11w4545100 0.0 1023898
18:00+8wnw335439 0.0 102320
21:00+7wnw358197 0.0 1025137
28 october, thu
thu2800:00+5nw359553 0.0 1026101
03:00+4nw3395100 0.0 102745
06:00+4wnw229227 0.0 102715
09:00+5w35866 0.0 1028120
12:00+11w455696 0.0 1027646
15:00+13w464778 0.0 10251063
18:00+10w335875 0.0 102543
21:00+9wsw3762100 0.0 1025137